Weather Roundup
Issued by NWS Springfield, MO

Home | Current Version | Previous Version | Text Only | Print | Product List | Glossary On
Versions: 1 2 3 4 5 6 7 8 9 10 11 12 13 14 15 16 17 18 19 20 21 22 23 24 25 26 27 28 29 30 31 32 33 34 35 36 37 38 39 40 41 42 43 44 45 46 47 48 49 50
329
NZUS99 KSGF 050657
HRRSGF

HOURLY WEATHER
NATIONAL WEATHER SERVICE SPRINGFIELD MO
200 AM CDT THU MAY 05 2016

......SGF CWA......

CITY           SKY/WX    TMP DP  RH WIND       PRES   REMARKS
SPRINGFIELD    CLEAR     47  38  71 CALM      29.99S
JOPLIN         PTCLDY    46  43  89 CALM      30.02S
WEST PLAINS    CLEAR     48  35  60 W5        29.97F

......SURROUNDING SGF CWA......

CITY           SKY/WX    TMP DP  RH WIND       PRES   REMARKS
CHANUTE        PTCLDY    47  41  80 NW3       30.03S
PARSONS        CLEAR     45  43  93 CALM      30.04S
COFFEYVILLE    CLEAR     49  44  83 CALM      30.03S
EMPORIA        CLEAR     51  41  68 NW5       30.04S
HARRISON AR    CLEAR     51  39  63 NW5       30.00S

......KANSAS AND MISSOURI......

CITY           SKY/WX    TMP DP  RH WIND       PRES   REMARKS
KANSAS CTY INT CLEAR     52  39  61 NW6       30.01S
SEDALIA        CLEAR     53  38  56 W8        29.98F
ST JOSEPH      CLEAR     43  41  93 N3        30.01S
ST LOUIS       PTCLDY    50  38  63 W7        29.89F
WICHITA        CLEAR     50  41  71 NW5       30.05S
TOPEKA         CLEAR     48  43  82 CALM      30.03
OLATHE         CLEAR     50  39  66 W5        30.01F

......TENNESSEE......

CITY           SKY/WX    TMP DP  RH WIND       PRES   REMARKS
MEMPHIS        NOT AVBL
NASHVILLE      CLEAR     50  40  68 NW6       29.84F

......ARKANSAS.......

CITY           SKY/WX    TMP DP  RH WIND       PRES   REMARKS
FAYETTEVILLE   PTCLDY    43  42  97 CALM      30.02S
FT SMITH       CLEAR     53  44  71 CALM      30.00S
LITTLE ROCK    CLEAR     59  40  49 NW6       29.95S

......OKLAHOMA.......

CITY           SKY/WX    TMP DP  RH WIND       PRES   REMARKS
TULSA          CLEAR     56  44  64 NW3       30.01S
PONCA CITY     CLEAR     46  42  86 CALM      30.04S
MCALESTER      PTCLDY    48  44  86 CALM      30.02S
OKLAHOMA CITY  CLEAR     59  40  49 N7        30.05S

......IOWA............

CITY           SKY/WX    TMP DP  RH WIND       PRES   REMARKS
DES MOINES     NOT AVBL
QUAD CITIES    CLEAR     50  35  56 NW3       29.93R

......ILLINOIS........

CITY           SKY/WX    TMP DP  RH WIND       PRES   REMARKS
QUINCY         CLEAR     46  37  71 NW8       29.91F
CHICAGO        MOCLDY    43  33  68 N16       29.88S




USA.gov is the U.S. government's official web portal to all federal, state and local government web resources and services.